ZHUHAI-1 01 (CAS-4A)

Last updated on Wed Sep 17 2025 00:02:31 GMT+0000 (Coordinated Universal Time)

1 42761U 17034D 25258.98223774 .00281054 36043-4 10110-2 0 9994 2 42761 43.0037 84.0280 0024722 278.1389 81.6681 15.87441148458118
UTC large
Height (km)
Speed (km/s)
/
Latitude / Longitude
Inclination (degrees)
Orbital Period (minutes)
Azimuth
Elevation
Range (km)
Doppler Factor

Next 0 passes for location: London (51.5072 / 0.1276)

Sorry there are no passes over London.